Weather History for K08D - June, 2013

Change the Weather History Date:

Saturday, June 8, 2013

  Actual Average (KMOT) Record (KMOT)
Temperature  
Mean Temperature 58 °F 62 °F  
Max Temperature 62 °F 73 °F 94 °F (1961)
Min Temperature 55 °F 51 °F 25 °F (1915)
Degree Days  
Heating Degree Days 6    
Cooling Degree Days 0 2  
Month to date cooling degree days 12  
Year to date cooling degree days 28  
Since 1 June cooling degree days 12  
Growing Degree Days 8 (Base 50)    
Moisture  
Dew Point 57 °F    
Average Humidity 99    
Maximum Humidity 100    
Minimum Humidity 72    
Precipitation  
Precipitation 0.42 in 0.12 in 1.73 in (1964)
Month to date precipitation 0.95  
Year to date precipitation 6.34  
Sea Level Pressure  
Sea Level Pressure 29.73 in    
Wind  
Wind Speed 11 mph (South)    
Max Wind Speed 20 mph    
Max Gust Speed 26 mph    
Visibility 9 miles    
Events Rain    
T = Trace of Precipitation, MM = Missing Value Source: NWS Daily Summary

Daily Weather History Graph

Daily Weather History Graph

Search for Another Location

Airport or City:

Trip Planner

Search our weather history database for the weather conditions in past years. The results will help you decide how hot, cold, wet, or windy it might be!

Date:

Astronomy

Jun. 08, 2013 Rise Set
Actual Time 5:49 AM CDT 9:48 PM CDT
Civil Twilight 5:08 AM CDT 10:29 PM CDT
Nautical Twilight 4:11 AM CDT 11:26 PM CDT
Astronomical Twilight 2:37 AM CDT 1:02 AM CDT
Moon 6:03 AM CDT (6/8) 9:47 PM CDT (6/8)
Length of Visible Light 17h 21m
Length of Day
15h 59m
New Moon, 0% of the Moon is Illuminated
Jun 8
New Moon
Jun 16
First Quarter
Jun 23
Full
Jun 29
Last Quarter
Jul 8
New

Hourly Weather History & Observations

Time (CDT) Temp. Dew Point Humidity Pressure Visibility Wind Dir Wind Speed Gust Speed Precip Events Conditions
12:15 AM 59.0 °F 50.0 °F 72% 29.72 in 10.0 mi ESE 11.5 mph - N/A   Overcast
12:35 AM 59.0 °F 53.6 °F 82% 29.72 in 10.0 mi SE 16.1 mph 21.9 mph N/A   Overcast
12:55 AM 57.2 °F 57.2 °F 100% 29.72 in 10.0 mi ESE 16.1 mph 21.9 mph N/A Rain Light Rain
1:15 AM 57.2 °F 57.2 °F 100% 29.72 in 10.0 mi SE 15.0 mph 19.6 mph N/A   Overcast
1:35 AM 59.0 °F 59.0 °F 100% 29.71 in 10.0 mi SE 12.7 mph 19.6 mph N/A   Overcast
1:55 AM 57.2 °F 57.2 °F 100% 29.71 in 10.0 mi SE 12.7 mph - N/A Rain Light Rain
2:15 AM 57.2 °F 57.2 °F 100% 29.71 in 10.0 mi SE 13.8 mph 19.6 mph N/A   Overcast
2:35 AM 57.2 °F 57.2 °F 100% 29.71 in 9.0 mi SE 12.7 mph 18.4 mph 0.01 in Rain Light Rain
2:55 AM 57.2 °F 57.2 °F 100% 29.70 in 10.0 mi SE 12.7 mph - 0.01 in Rain Light Rain
3:15 AM 57.2 °F 57.2 °F 100% 29.70 in 10.0 mi SE 10.4 mph - N/A Rain Light Rain
3:35 AM 57.2 °F 57.2 °F 100% 29.70 in 10.0 mi SE 8.1 mph - N/A   Overcast
3:55 AM 57.2 °F 57.2 °F 100% 29.71 in 10.0 mi SSE 8.1 mph - N/A   Overcast
4:15 AM 57.2 °F 57.2 °F 100% 29.70 in 10.0 mi SE 10.4 mph - N/A   Overcast
4:35 AM 57.2 °F 57.2 °F 100% 29.70 in 10.0 mi SSE 9.2 mph - N/A   Overcast
4:55 AM 57.2 °F 57.2 °F 100% 29.69 in 10.0 mi SE 11.5 mph - N/A Rain Light Rain
5:15 AM 57.2 °F 57.2 °F 100% 29.68 in 9.0 mi SE 10.4 mph - N/A Rain Light Rain
5:35 AM 57.2 °F 57.2 °F 100% 29.68 in 2.5 mi SE 11.5 mph - 0.01 in Rain Rain
5:55 AM 57.2 °F 57.2 °F 100% 29.68 in 10.0 mi SSE 13.8 mph 18.4 mph 0.01 in Rain Light Rain
6:15 AM 57.2 °F 57.2 °F 100% 29.68 in 8.0 mi SSE 12.7 mph 19.6 mph N/A Rain Light Rain
6:35 AM 57.2 °F 57.2 °F 100% 29.68 in 3.0 mi SSE 15.0 mph 19.6 mph 0.01 in Rain Light Rain
6:55 AM 57.2 °F 57.2 °F 100% 29.69 in 2.5 mi SSE 13.8 mph 20.7 mph 0.05 in Rain Rain
7:15 AM 57.2 °F 57.2 °F 100% 29.69 in 1.8 mi SSE 13.8 mph 19.6 mph 0.02 in Rain Rain
7:35 AM 57.2 °F 57.2 °F 100% 29.70 in 4.0 mi SSE 13.8 mph - 0.04 in Rain Light Rain
7:55 AM 55.4 °F 55.4 °F 100% 29.69 in 1.2 mi SSE 19.6 mph 24.2 mph 0.04 in   Overcast
8:15 AM 57.2 °F 57.2 °F 100% 29.69 in 10.0 mi SSE 13.8 mph 20.7 mph N/A Rain Light Rain
8:35 AM 55.4 °F 55.4 °F 100% 29.70 in 10.0 mi SSE 12.7 mph 19.6 mph N/A Rain Light Rain
8:55 AM 55.4 °F 55.4 °F 100% 29.69 in 6.0 mi South 16.1 mph 20.7 mph N/A   Mostly Cloudy
9:15 AM 55.4 °F 55.4 °F 100% 29.69 in 3.0 mi South 12.7 mph - N/A   Mostly Cloudy
9:35 AM 55.4 °F 55.4 °F 100% 29.69 in 4.0 mi South 12.7 mph 19.6 mph 0.02 in Rain Light Rain
9:55 AM 55.4 °F 55.4 °F 100% 29.70 in 10.0 mi South 13.8 mph - 0.03 in   Mostly Cloudy
10:15 AM 57.2 °F 57.2 °F 100% 29.70 in 10.0 mi South 13.8 mph - N/A   Mostly Cloudy
10:35 AM 55.4 °F 55.4 °F 100% 29.70 in 9.0 mi South 13.8 mph 17.3 mph N/A   Mostly Cloudy
10:55 AM 55.4 °F 55.4 °F 100% 29.70 in 10.0 mi SSE 12.7 mph - N/A Rain Light Rain
11:15 AM 55.4 °F 55.4 °F 100% 29.70 in 10.0 mi SSE 15.0 mph - N/A   Mostly Cloudy
11:35 AM 55.4 °F 55.4 °F 100% 29.70 in 10.0 mi SSE 17.3 mph - N/A   Mostly Cloudy
11:55 AM 55.4 °F 55.4 °F 100% 29.70 in 7.0 mi SSE 15.0 mph 20.7 mph N/A   Mostly Cloudy
12:15 PM 57.2 °F 57.2 °F 100% 29.71 in 5.0 mi South 13.8 mph 18.4 mph N/A   Overcast
12:35 PM 57.2 °F 57.2 °F 100% 29.72 in 1.2 mi WSW 6.9 mph 18.4 mph 0.05 in Rain Rain
12:55 PM 57.2 °F 57.2 °F 100% 29.72 in 10.0 mi Calm Calm - 0.08 in Rain Light Rain
1:15 PM 59.0 °F 59.0 °F 100% 29.73 in 9.0 mi West 5.8 mph - 0.05 in Rain Rain
1:35 PM 59.0 °F 59.0 °F 100% 29.73 in 10.0 mi WNW 3.5 mph - 0.09 in Rain Rain
1:55 PM 59.0 °F 59.0 °F 100% 29.73 in 10.0 mi Calm Calm - 0.09 in   Mostly Cloudy
2:15 PM 59.0 °F 59.0 °F 100% 29.73 in 10.0 mi Calm Calm - N/A   Overcast
2:35 PM 59.0 °F 59.0 °F 100% 29.73 in 10.0 mi WNW 3.5 mph - N/A Rain Light Rain
2:55 PM 59.0 °F 59.0 °F 100% 29.74 in 10.0 mi NE 4.6 mph - 0.01 in Rain Light Rain
3:15 PM 57.2 °F 57.2 °F 100% 29.74 in 10.0 mi ENE 5.8 mph - N/A   Overcast
3:35 PM 57.2 °F 57.2 °F 100% 29.74 in 10.0 mi East 3.5 mph - N/A   Mostly Cloudy
3:55 PM 59.0 °F 59.0 °F 100% 29.74 in 10.0 mi ENE 4.6 mph - N/A   Mostly Cloudy
4:15 PM 59.0 °F 59.0 °F 100% 29.74 in 10.0 mi ESE 4.6 mph - N/A   Overcast
4:35 PM 59.0 °F 59.0 °F 100% 29.75 in 10.0 mi West 4.6 mph - N/A   Mostly Cloudy
4:55 PM 59.0 °F 59.0 °F 100% 29.75 in 10.0 mi SW 3.5 mph - N/A   Mostly Cloudy
5:15 PM 62.6 °F 62.6 °F 100% 29.74 in 10.0 mi WSW 8.1 mph - N/A   Scattered Clouds
5:35 PM 62.6 °F 62.6 °F 100% 29.75 in 10.0 mi SW 6.9 mph - N/A   Mostly Cloudy
5:55 PM 62.6 °F 62.6 °F 100% 29.76 in 10.0 mi WSW 15.0 mph - N/A   Mostly Cloudy
6:15 PM 60.8 °F 60.8 °F 100% 29.76 in 10.0 mi West 16.1 mph - N/A   Overcast
6:35 PM 59.0 °F 59.0 °F 100% 29.77 in 5.0 mi West 6.9 mph - 0.01 in Rain Light Rain
6:55 PM 59.0 °F 59.0 °F 100% 29.77 in 10.0 mi West 12.7 mph 17.3 mph 0.03 in Rain Light Rain
7:15 PM 59.0 °F 59.0 °F 100% 29.77 in 10.0 mi West 12.7 mph 18.4 mph N/A   Mostly Cloudy
7:35 PM 59.0 °F 59.0 °F 100% 29.78 in 10.0 mi West 11.5 mph 17.3 mph N/A   Overcast
7:55 PM 59.0 °F 59.0 °F 100% 29.79 in 10.0 mi West 16.1 mph 26.5 mph N/A Rain Light Rain
8:15 PM 57.2 °F 57.2 °F 100% 29.79 in 3.0 mi WNW 8.1 mph - 0.06 in Rain Rain
8:35 PM 57.2 °F 57.2 °F 100% 29.80 in 10.0 mi WNW 10.4 mph 16.1 mph 0.07 in Rain Light Rain
8:55 PM 57.2 °F 57.2 °F 100% 29.80 in 10.0 mi WNW 6.9 mph - 0.07 in   Overcast
9:15 PM 57.2 °F 57.2 °F 100% 29.81 in 10.0 mi West 6.9 mph - N/A Rain Light Rain
9:35 PM 57.2 °F 57.2 °F 100% 29.81 in 10.0 mi West 6.9 mph - N/A   Overcast
9:55 PM 57.2 °F 57.2 °F 100% 29.81 in 10.0 mi West 9.2 mph - N/A   Mostly Cloudy
10:15 PM 57.2 °F 57.2 °F 100% 29.82 in 10.0 mi West 8.1 mph - N/A   Overcast
10:35 PM 55.4 °F 55.4 °F 100% 29.82 in 10.0 mi West 8.1 mph - N/A   Mostly Cloudy
10:55 PM 55.4 °F 55.4 °F 100% 29.83 in 10.0 mi West 8.1 mph - N/A   Partly Cloudy
11:15 PM 55.4 °F 55.4 °F 100% 29.84 in 10.0 mi West 6.9 mph - N/A   Mostly Cloudy
11:35 PM 55.4 °F 55.4 °F 100% 29.84 in 10.0 mi West 5.8 mph - N/A   Overcast
11:55 PM 55.4 °F 55.4 °F 100% 29.84 in 10.0 mi WSW 4.6 mph - N/A   Overcast